SHENZHOU-22

Last updated on Sun Apr 12 2026 00:02:13 GMT+0000 (Coordinated Universal Time)

1 66645U 25272A 26101.46204559 .00021127 00000+0 23577-3 0 9999 2 66645 41.4684 8.5089 0004896 185.3239 174.7549 15.62269291283131

Satellite not in orbit

SHENZHOU-22